Location: Duac?
(36.9744°N, 30.6500°E)
Time: 07:51:51
(UTC+00:00)

ERS-1 Rocket - Pass Details

Date: 05 August 2024
Orbit: 750 x 753 km, 98.3° (Epoch: 10 September)

Event Time Altitude Azimuth Distance (km) Brightness Sun altitude
Exits shadow 18:35:37 30° 117° (ESE) 1,314 3.6 -17.4°
Maximum altitude 18:37:23 42° 72° (ENE) 1,069 3.5 -17.7°
Drops below altitude 10° 18:42:05 10° 2° (N) 2,277 5.9 -18.4°
Sets 18:44:28 0° 356° (N) 3,206 6.9 -18.8°
